Location: Usti nad Labem
(50.6670°N, 14.0330°E)
Time: 21:45:31
(UTC+01:00)

Envisat - Pass Details

Date: 08 December 2020
Orbit: 764 x 766 km, 98.1° (Epoch: 15 January)

Event Time Altitude Azimuth Distance (km) Brightness Sun altitude
Rises 05:16:40 0° 21° (NNE) 3,245 6.4 -23.5°
Reaches altitude 10° 05:19:13 10° 31° (NNE) 2,314 5.7 -23.1°
Maximum altitude 05:23:48 33° 95° (E) 1,278 4.8 -22.4°
Drops below altitude 10° 05:28:20 10° 159° (SSE) 2,297 5.8 -21.7°
Sets 05:30:51 0° 169° (SSE) 3,218 6.5 -21.3°
